Location: Te Maire Creek
(41.1333°S, 175.9167°E)
Time: 00:03:46
(UTC+00:00)

BREEZE-M DEB (TANK) - Pass Details

Date: 19 May 2024
Orbit: 285 x 12430 km, 49.5° (Epoch: 18 June)

Event Time Altitude Azimuth Distance (km) Brightness Sun altitude
Exits shadow 17:39:13 - 349° (N) 1,424 4.4 -19.2°
Reaches altitude 10° 17:39:23 10° 351° (N) 1,364 4.4 -19.1°
Maximum altitude 17:41:44 28° 55° (NE) 1,009 4.3 -18.7°
Drops below altitude 10° 17:46:31 10° 114° (ESE) 2,860 6.7 -17.8°
Sets 17:51:33 0° 122° (ESE) 5,138 8.0 -16.9°
